Hourly Data Report for April 04, 2017

TORONTO CITY
ONTARIO

43°40'00.000" N
79°24'00.000" W
112.50 m
6158355
71508
XTO

Download Data

Hourly Data (April 2017)
Hourly Data Report for April 4, 2017
TIME
LST
Temp Definition
°C
Dew Point Definition
°C
Rel Hum Definition
%
Precip. Amount Definition
mm

Wind Dir Definition
10's deg

Wind Spd Definition
km/h
Visibility Definition
km
Stn Press Definition
kPa
Hmdx Definition


Wind Chill Definition


Weather Definition


00:00 5.5 3.6 88 1.6 LegendMM LegendMM   98.53     LegendNANA
01:00 6.1 5.0 92 2.1 LegendMM LegendMM   98.37     LegendNANA
02:00 6.2 5.3 94 0.5 LegendMM LegendMM   98.24     LegendNANA
03:00 7.1 6.3 94 0.2 LegendMM LegendMM   98.15     LegendNANA
04:00 7.1 6.3 94 0.2 LegendMM LegendMM   98.11     LegendNANA
05:00 7.0 6.1 94 0.0 LegendMM LegendMM   98.07     LegendNANA
06:00 6.9 6.1 94 0.0 LegendMM LegendMM   98.08     LegendNANA
07:00 6.5 5.7 95 1.9 LegendMM LegendMM   98.08     LegendNANA
08:00 6.9 6.0 94 4.7 LegendMM LegendMM   98.02     LegendNANA
09:00 7.2 6.2 94 1.2 LegendMM LegendMM   98.00     LegendNANA
10:00 7.9 6.9 94 0.4 LegendMM LegendMM   98.01     LegendNANA
11:00 9.2 8.0 92 0.0 LegendMM LegendMM   98.01     LegendNANA
12:00 9.8 8.0 89 0.0 LegendMM LegendMM   98.02     LegendNANA
13:00 9.6 8.1 91 0.5 LegendMM LegendMM   98.03     LegendNANA
14:00 8.7 7.1 90 0.9 LegendMM LegendMM   98.05     LegendNANA
15:00 10.4 7.0 80 0.0 LegendMM LegendMM   98.18     LegendNANA
16:00 8.5 5.0 79 0.2 LegendMM LegendMM   98.34     LegendNANA
17:00 6.6 3.1 78 0.7 LegendMM LegendMM   98.49     LegendNANA
18:00 6.3 2.4 76 0.0 LegendMM LegendMM   98.64     LegendNANA
19:00 6.1 2.0 75 0.0 LegendMM LegendMM   98.77     LegendNANA
20:00 6.5 2.2 74 0.0 LegendMM LegendMM   98.98     LegendNANA
21:00 6.5 2.2 74 0.0 LegendMM LegendMM   99.11     LegendNANA
22:00 6.5 2.0 73 0.0 LegendMM LegendMM   99.19     LegendNANA
23:00 6.4 2.0 73 0.0 LegendMM LegendMM   99.32     LegendNANA

Notes on Data Quality.

Legend

  • E = Estimated
  • M = Missing
  • NA = Not Available*
  • [empty] = Indicates an unobserved value
Date modified: